,,Stat5,,Stat1,,Stat2,,Stat3,,Stat4,,Wind1,,Wind1,
time,status,PA1M_AVG,status,PR1M_SUM,status,RH1M_AVG,status,SR1M_AVG,status,TA1M_AVG,status,W1dAve1m,status,W1sAve1m,
2000-12-03, 00:00:01,VALID,919.484,VALID,0,VALID,96.3126,VALID,0,VALID,19.0872,VALID,131,VALID,0,
2000-12-03, 00:01:00,VALID,919.484,VALID,0,VALID,96.221,VALID,-0.0339617,VALID,19.0872,VALID,143,VALID,0,
2000-12-03, 00:02:00,VALID,919.465,VALID,0,VALID,96.1104,VALID,-0.0679233,VALID,19.0875,VALID,158,VALID,0,
2000-12-03, 00:03:00,VALID,919.458,VALID,0,VALID,96.0239,VALID,-0.0509425,VALID,19.0746,VALID,192,VALID,0,
2000-12-03, 00:04:00,VALID,919.439,VALID,0,VALID,95.9553,VALID,-0.0679233,VALID,19.039,VALID,225,VALID,0,
2000-12-03, 00:05:00,VALID,919.433,VALID,0,VALID,96.0417,VALID,-0.0849042,VALID,19.0132,VALID,229,VALID,0,
2000-12-03, 00:06:00,VALID,919.416,VALID,0,VALID,96.1893,VALID,-0.101885,VALID,18.994,VALID,229,VALID,0,
2000-12-03, 00:07:00,VALID,919.384,VALID,0,VALID,96.3686,VALID,-0.0849042,VALID,18.9513,VALID,229,VALID,0,
2000-12-03, 00:08:00,VALID,919.366,VALID,0,VALID,96.5466,VALID,-0.101885,VALID,18.9426,VALID,229,VALID,0,
2000-12-03, 00:09:00,VALID,919.364,VALID,0,VALID,96.647,VALID,-0.101885,VALID,18.9296,VALID,229,VALID,0,
2000-12-03, 00:10:00,VALID,919.347,VALID,0,VALID,96.6,VALID,-0.101885,VALID,18.9036,VALID,229,VALID,0,
2000-12-03, 00:11:00,VALID,919.337,VALID,0,VALID,96.6102,VALID,-0.101885,VALID,18.8876,VALID,229,VALID,0,
2000-12-03, 00:12:00,VALID,919.32,VALID,0,VALID,96.5885,VALID,-0.0849042,VALID,18.8775,VALID,229,VALID,0,
2000-12-03, 00:13:00,VALID,919.301,VALID,0,VALID,96.6076,VALID,-0.101885,VALID,18.8747,VALID,229,VALID,0,
2000-12-03, 00:14:00,VALID,919.293,VALID,0,VALID,96.6623,VALID,-0.0849042,VALID,18.871,VALID,229,VALID,0,
2000-12-03, 00:15:00,VALID,919.266,VALID,0,VALID,96.75,VALID,-0.101885,VALID,18.8805,VALID,229,VALID,0,
2000-12-03, 00:16:00,VALID,919.249,VALID,0,VALID,96.689,VALID,-0.101885,VALID,18.8586,VALID,229,VALID,0,
2000-12-03, 00:17:00,VALID,919.225,VALID,0,VALID,96.6432,VALID,-0.101885,VALID,18.8521,VALID,229,VALID,0,
2000-12-03, 00:18:00,VALID,919.221,VALID,0,VALID,96.7106,VALID,-0.101885,VALID,18.865,VALID,229,VALID,0,
2000-12-03, 00:19:00,VALID,919.198,VALID,0,VALID,96.7373,VALID,0,VALID,18.8832,VALID,229,VALID,0,
2000-12-03, 00:20:00,VALID,919.18,VALID,0,VALID,96.118,VALID,0,VALID,18.8278,VALID,166,VALID,0,
2000-12-03, 00:21:01,VALID,919.161,VALID,0,VALID,95.6247,VALID,0,VALID,18.7279,VALID,101,VALID,0,
2000-12-03, 00:22:00,VALID,919.152,VALID,0,VALID,96.113,VALID,0,VALID,18.6929,VALID,98,VALID,0,
2000-12-03, 00:23:00,VALID,919.141,VALID,0,VALID,96.263,VALID,0.0339617,VALID,18.6566,VALID,95,VALID,0,
2000-12-03, 00:24:00,VALID,919.147,VALID,0,VALID,96.4868,VALID,0.0169808,VALID,18.6564,VALID,84,VALID,0,
2000-12-03, 00:25:00,VALID,919.128,VALID,0,VALID,96.6165,VALID,0,VALID,18.6698,VALID,82,VALID,0,
2000-12-03, 00:26:00,VALID,919.104,VALID,0,VALID,96.764,VALID,0,VALID,18.6958,VALID,30,VALID,0,
2000-12-03, 00:27:00,VALID,919.085,VALID,0,VALID,97.1163,VALID,0.0169808,VALID,18.7304,VALID,311,VALID,0,
2000-12-03, 00:28:00,VALID,919.061,VALID,0,VALID,97.2917,VALID,0,VALID,18.7535,VALID,309,VALID,0,
2000-12-03, 00:29:00,VALID,919.041,VALID,0,VALID,97.2447,VALID,0,VALID,18.7468,VALID,308,VALID,0,
2000-12-03, 00:30:00,VALID,919.026,VALID,0,VALID,96.839,VALID,0.0169808,VALID,18.6889,VALID,308,VALID,0,
2000-12-03, 00:31:01,VALID,919.02,VALID,0,VALID,96.6191,VALID,0.0169808,VALID,18.6211,VALID,308,VALID,0,
2000-12-03, 00:32:00,VALID,919.004,VALID,0,VALID,96.8543,VALID,0.0169808,VALID,18.6176,VALID,308,VALID,0,
2000-12-03, 00:33:00,VALID,918.991,VALID,0,VALID,96.9281,VALID,0,VALID,18.6079,VALID,308,VALID,0,
2000-12-03, 00:34:00,VALID,918.973,VALID,0,VALID,97.1671,VALID,0,VALID,18.6347,VALID,308,VALID,0,
2000-12-03, 00:35:01,VALID,918.967,VALID,0,VALID,96.8975,VALID,0,VALID,18.5892,VALID,308,VALID,0,
2000-12-03, 00:36:00,VALID,918.962,VALID,0,VALID,96.7221,VALID,0,VALID,18.5505,VALID,308,VALID,0,
2000-12-03, 00:37:00,VALID,918.955,VALID,0,VALID,97.1493,VALID,0.0169808,VALID,18.5701,VALID,322,VALID,0,
2000-12-03, 00:38:01,VALID,918.959,VALID,0,VALID,97.7724,VALID,0,VALID,18.664,VALID,323,VALID,0,
2000-12-03, 00:39:00,VALID,918.954,VALID,0,VALID,98.1208,VALID,0,VALID,18.7381,VALID,319,VALID,0,
2000-12-03, 00:40:00,VALID,918.927,VALID,0,VALID,98.2989,VALID,0,VALID,18.7702,VALID,310,VALID,0,
2000-12-03, 00:41:00,VALID,918.911,VALID,0,VALID,98.3904,VALID,0,VALID,18.7699,VALID,317,VALID,0,
2000-12-03, 00:42:00,VALID,918.907,VALID,0,VALID,98.4654,VALID,0,VALID,18.7796,VALID,315,VALID,0,
2000-12-03, 00:43:00,VALID,918.887,VALID,0,VALID,98.5379,VALID,0,VALID,18.7796,VALID,315,VALID,0,
2000-12-03, 00:44:00,VALID,918.879,VALID,0,VALID,98.5862,VALID,0.0169808,VALID,18.7891,VALID,322,VALID,0,
2000-12-03, 00:45:01,VALID,918.867,VALID,0,VALID,98.632,VALID,0,VALID,18.799,VALID,329,VALID,0,
2000-12-03, 00:46:00,VALID,918.846,VALID,0,VALID,98.646,VALID,0,VALID,18.7831,VALID,16,VALID,0,
2000-12-03, 00:47:00,VALID,918.862,VALID,0,VALID,98.6333,VALID,0.0169808,VALID,18.754,VALID,79,VALID,0,
2000-12-03, 00:48:00,VALID,918.858,VALID,0,VALID,98.4858,VALID,0,VALID,18.67,VALID,89,VALID,0,
2000-12-03, 00:49:00,VALID,918.862,VALID,0,VALID,98.3217,VALID,-0.101885,VALID,18.5745,VALID,88,VALID,0,
2000-12-03, 00:50:00,VALID,918.86,VALID,0,VALID,98.468,VALID,-0.0849042,VALID,18.5773,VALID,337,VALID,0,
2000-12-03, 00:51:00,VALID,918.858,VALID,0,VALID,98.6791,VALID,-0.101885,VALID,18.6684,VALID,313,VALID,0,
2000-12-03, 00:52:00,VALID,918.859,VALID,0,VALID,98.7681,VALID,-0.0849042,VALID,18.7067,VALID,313,VALID,0,
2000-12-03, 00:53:00,VALID,918.848,VALID,0,VALID,98.8075,VALID,-0.0849042,VALID,18.7427,VALID,313,VALID,0,
2000-12-03, 00:54:01,VALID,918.844,VALID,0,VALID,98.838,VALID,-0.101885,VALID,18.7589,VALID,313,VALID,0,
2000-12-03, 00:55:00,VALID,918.829,VALID,0,VALID,98.8685,VALID,-0.118866,VALID,18.775,VALID,313,VALID,0,
2000-12-03, 00:56:01,VALID,918.829,VALID,0,VALID,98.8851,VALID,-0.101885,VALID,18.7711,VALID,313,VALID,0,
2000-12-03, 00:57:00,VALID,918.821,VALID,0,VALID,98.8342,VALID,-0.101885,VALID,18.7229,VALID,313,VALID,0,
2000-12-03, 00:58:00,VALID,918.819,VALID,0,VALID,98.8812,VALID,-0.101885,VALID,18.7494,VALID,313,VALID,0,
2000-12-03, 00:59:00,VALID,918.815,VALID,0,VALID,98.9219,VALID,-0.101885,VALID,18.7623,VALID,316,VALID,0,
2000-12-03, 01:00:00,VALID,918.799,VALID,0,VALID,98.9423,VALID,-0.118866,VALID,18.7813,VALID,337,VALID,0,
2000-12-03, 01:01:01,VALID,918.761,VALID,0,VALID,98.9105,VALID,-0.0849042,VALID,18.7261,VALID,57,VALID,0,
2000-12-03, 01:02:00,VALID,918.764,VALID,0,VALID,98.796,VALID,-0.118866,VALID,18.6749,VALID,112,VALID,0,
2000-12-03, 01:03:01,VALID,918.761,VALID,0,VALID,98.7185,VALID,-0.101885,VALID,18.5909,VALID,112,VALID,0,
2000-12-03, 01:04:01,VALID,918.759,VALID,0,VALID,98.7172,VALID,0.0339617,VALID,18.5629,VALID,86,VALID,0,
2000-12-03, 01:05:00,VALID,918.744,VALID,0,VALID,98.7579,VALID,0.0339617,VALID,18.5669,VALID,33,VALID,0,
2000-12-03, 01:06:00,VALID,918.715,VALID,0,VALID,98.8037,VALID,0.0169808,VALID,18.5992,VALID,15,VALID,0,
2000-12-03, 01:07:00,VALID,918.703,VALID,0,VALID,98.8037,VALID,0,VALID,18.5922,VALID,15,VALID,0,
2000-12-03, 01:08:01,VALID,918.676,VALID,0,VALID,98.8139,VALID,0,VALID,18.5922,VALID,40,VALID,0,
2000-12-03, 01:09:01,VALID,918.664,VALID,0,VALID,98.7134,VALID,0,VALID,18.5634,VALID,77,VALID,0,
2000-12-03, 01:10:00,VALID,918.636,VALID,0,VALID,98.6307,VALID,0,VALID,18.5475,VALID,61,VALID,0,
2000-12-03, 01:11:01,VALID,918.616,VALID,0,VALID,98.5125,VALID,0,VALID,18.5147,VALID,68,VALID,0,
2000-12-03, 01:12:00,VALID,918.609,VALID,0,VALID,98.323,VALID,0.0169808,VALID,18.5246,VALID,78,VALID,0,
2000-12-03, 01:13:00,VALID,918.594,VALID,0,VALID,98.056,VALID,0,VALID,18.5477,VALID,79,VALID,0,
2000-12-03, 01:14:00,VALID,918.6,VALID,0,VALID,97.6999,VALID,0,VALID,18.544,VALID,76,VALID,0,
2000-12-03, 01:15:00,VALID,918.606,VALID,0,VALID,97.3655,VALID,0,VALID,18.5442,VALID,83,VALID,0,
2000-12-03, 01:16:00,VALID,918.603,VALID,0,VALID,97.1455,VALID,0,VALID,18.5376,VALID,86,VALID,0,
2000-12-03, 01:17:00,VALID,918.603,VALID,0,VALID,97.0272,VALID,0.0169808,VALID,18.5472,VALID,55,VALID,0,
2000-12-03, 01:18:00,VALID,918.627,VALID,0,VALID,97.5244,VALID,0.0169808,VALID,18.6151,VALID,291,VALID,0,
2000-12-03, 01:19:00,VALID,918.618,VALID,0,VALID,97.7279,VALID,0,VALID,18.631,VALID,282,VALID,0,
2000-12-03, 01:20:00,VALID,918.614,VALID,0,VALID,97.7838,VALID,0,VALID,18.6315,VALID,276,VALID,0,
2000-12-03, 01:21:00,VALID,918.602,VALID,0,VALID,97.7457,VALID,0.0169808,VALID,18.6185,VALID,276,VALID,0,
2000-12-03, 01:22:00,VALID,918.597,VALID,0,VALID,97.5728,VALID,0.0169808,VALID,18.589,VALID,348,VALID,0,
2000-12-03, 01:23:00,VALID,918.582,VALID,0,VALID,97.3337,VALID,0,VALID,18.6248,VALID,316,VALID,0,
2000-12-03, 01:24:00,VALID,918.576,VALID,0,VALID,97.1951,VALID,0.0339617,VALID,18.6506,VALID,315,VALID,0,
2000-12-03, 01:25:00,VALID,918.57,VALID,0,VALID,96.8823,VALID,0.0169808,VALID,18.6315,VALID,319,VALID,0,
2000-12-03, 01:26:00,VALID,918.547,VALID,0,VALID,96.6254,VALID,0,VALID,18.6056,VALID,68,VALID,0,
2000-12-03, 01:27:01,VALID,918.522,VALID,0,VALID,96.4995,VALID,0.0169808,VALID,18.5636,VALID,105,VALID,0,
2000-12-03, 01:28:01,VALID,918.514,VALID,0,VALID,96.3558,VALID,0,VALID,18.5505,VALID,108,VALID,0,
2000-12-03, 01:29:01,VALID,918.515,VALID,0,VALID,96.1371,VALID,0.0339617,VALID,18.5472,VALID,101,VALID,0,
2000-12-03, 01:30:00,VALID,918.517,VALID,0,VALID,95.8408,VALID,0,VALID,18.5373,VALID,103,VALID,0,
2000-12-03, 01:31:00,VALID,918.509,VALID,0,VALID,95.7315,VALID,0,VALID,18.5343,VALID,104,VALID,0,
2000-12-03, 01:32:00,VALID,918.481,VALID,0,VALID,95.5751,VALID,0.0169808,VALID,18.5249,VALID,104,VALID,0,
2000-12-03, 01:33:00,VALID,918.469,VALID,0,VALID,95.5026,VALID,0.0509425,VALID,18.5214,VALID,104,VALID,0,
2000-12-03, 01:34:01,VALID,918.461,VALID,0,VALID,95.4733,VALID,0,VALID,18.5341,VALID,104,VALID,0,
2000-12-03, 01:35:00,VALID,918.45,VALID,0,VALID,95.2673,VALID,0.0169808,VALID,18.5442,VALID,104,VALID,0,
2000-12-03, 01:36:00,VALID,918.424,VALID,0,VALID,95.1211,VALID,0.0169808,VALID,18.5274,VALID,102,VALID,0,
2000-12-03, 01:37:01,VALID,918.415,VALID,0,VALID,94.9876,VALID,0,VALID,18.5313,VALID,100,VALID,0,
2000-12-03, 01:38:00,VALID,918.378,VALID,0,VALID,94.98,VALID,0.0169808,VALID,18.5082,VALID,102,VALID,0,
2000-12-03, 01:39:00,VALID,918.368,VALID,0,VALID,94.9304,VALID,0.0169808,VALID,18.5057,VALID,103,VALID,0,
2000-12-03, 01:40:00,VALID,918.357,VALID,0,VALID,94.9927,VALID,0.0169808,VALID,18.4861,VALID,103,VALID,0,
2000-12-03, 01:41:01,VALID,918.349,VALID,0,VALID,95.1109,VALID,0.0169808,VALID,18.4859,VALID,103,VALID,0,
2000-12-03, 01:42:01,VALID,918.322,VALID,0,VALID,95.1949,VALID,0.0339617,VALID,18.5018,VALID,103,VALID,0,
2000-12-03, 01:43:00,VALID,918.315,VALID,0,VALID,95.1936,VALID,0,VALID,18.5246,VALID,103,VALID,0,
2000-12-03, 01:44:01,VALID,918.302,VALID,0,VALID,95.0969,VALID,0.0169808,VALID,18.5147,VALID,103,VALID,0,
2000-12-03, 01:45:00,VALID,918.28,VALID,0,VALID,94.9176,VALID,0,VALID,18.5115,VALID,103,VALID,0,
2000-12-03, 01:46:00,VALID,918.269,VALID,0,VALID,94.849,VALID,0.0339617,VALID,18.499,VALID,103,VALID,0,
2000-12-03, 01:47:00,VALID,918.261,VALID,0,VALID,94.9838,VALID,0.0509425,VALID,18.463,VALID,103,VALID,0,
2000-12-03, 01:48:00,VALID,918.262,VALID,0,VALID,95.1186,VALID,0.0169808,VALID,18.457,VALID,103,VALID,0,
2000-12-03, 01:49:00,VALID,918.25,VALID,0,VALID,95.2381,VALID,-0.0339617,VALID,18.4582,VALID,103,VALID,0,
2000-12-03, 01:50:00,VALID,918.254,VALID,0,VALID,95.392,VALID,-0.0339617,VALID,18.4836,VALID,103,VALID,0,
2000-12-03, 01:51:00,VALID,918.243,VALID,0,VALID,95.5649,VALID,-0.0169808,VALID,18.5226,VALID,103,VALID,0,
2000-12-03, 01:52:00,VALID,918.215,VALID,0,VALID,95.3347,VALID,-0.0169808,VALID,18.5611,VALID,86,VALID,0,
2000-12-03, 01:53:00,VALID,918.208,VALID,0,VALID,95.2584,VALID,-0.0339617,VALID,18.5899,VALID,49,VALID,0,
2000-12-03, 01:54:00,VALID,918.18,VALID,0,VALID,94.6315,VALID,-0.0169808,VALID,18.5646,VALID,60,VALID,0,
2000-12-03, 01:55:01,VALID,918.165,VALID,0,VALID,94.6392,VALID,-0.0169808,VALID,18.5191,VALID,79,VALID,0,
2000-12-03, 01:56:01,VALID,918.174,VALID,0,VALID,94.9189,VALID,-0.0339617,VALID,18.49,VALID,79,VALID,0,
2000-12-03, 01:57:00,VALID,918.179,VALID,0,VALID,95.102,VALID,-0.0169808,VALID,18.4607,VALID,79,VALID,0,
2000-12-03, 01:58:00,VALID,918.192,VALID,0,VALID,94.9838,VALID,-0.0169808,VALID,18.4353,VALID,79,VALID,0,
2000-12-03, 01:59:01,VALID,918.186,VALID,0,VALID,95.3297,VALID,0,VALID,18.4157,VALID,79,VALID,0,
2000-12-03, 02:00:01,VALID,918.163,VALID,0,VALID,95.5026,VALID,0,VALID,18.4254,VALID,79,VALID,0,
2000-12-03, 02:01:01,VALID,918.157,VALID,0,VALID,95.2902,VALID,-0.0509425,VALID,18.4321,VALID,79,VALID,0,
2000-12-03, 02:02:01,VALID,918.146,VALID,0,VALID,95.1949,VALID,0,VALID,18.4293,VALID,77,VALID,0,
2000-12-03, 02:03:01,VALID,918.14,VALID,0,VALID,95.1796,VALID,-0.0169808,VALID,18.3873,VALID,65,VALID,0,
2000-12-03, 02:04:01,VALID,918.134,VALID,0,VALID,95.528,VALID,-0.0339617,VALID,18.3841,VALID,76,VALID,0,
2000-12-03, 02:05:01,VALID,918.113,VALID,0,VALID,95.5089,VALID,-0.0679233,VALID,18.4037,VALID,82,VALID,0,
2000-12-03, 02:06:01,VALID,918.111,VALID,0,VALID,95.5077,VALID,-0.0509425,VALID,18.433,VALID,87,VALID,0,
2000-12-03, 02:07:01,VALID,918.103,VALID,0,VALID,95.3131,VALID,-0.0849042,VALID,18.4679,VALID,87,VALID,0,
2000-12-03, 02:08:01,VALID,918.1,VALID,0,VALID,95.3792,VALID,-0.0339617,VALID,18.4838,VALID,87,VALID,0,
2000-12-03, 02:09:01,VALID,918.097,VALID,0,VALID,95.4797,VALID,0.0169808,VALID,18.4868,VALID,87,VALID,0,
2000-12-03, 02:10:01,VALID,918.087,VALID,0,VALID,95.1554,VALID,0,VALID,18.4517,VALID,93,VALID,0,
2000-12-03, 02:11:01,VALID,918.082,VALID,0,VALID,95.1593,VALID,-0.0509425,VALID,18.3973,VALID,102,VALID,0,
2000-12-03, 02:12:01,VALID,918.075,VALID,0,VALID,95.5102,VALID,-0.0169808,VALID,18.3578,VALID,86,VALID,0,
2000-12-03, 02:13:01,VALID,918.061,VALID,0,VALID,95.8434,VALID,-0.0679233,VALID,18.3518,VALID,95,VALID,0,
2000-12-03, 02:14:01,VALID,918.06,VALID,0,VALID,95.9566,VALID,-0.0679233,VALID,18.3357,VALID,102,VALID,0,
2000-12-03, 02:15:01,VALID,918.063,VALID,0,VALID,96.3024,VALID,-0.0169808,VALID,18.3555,VALID,103,VALID,0,
2000-12-03, 02:16:01,VALID,918.062,VALID,0,VALID,96.5707,VALID,-0.0509425,VALID,18.3843,VALID,90,VALID,0,
2000-12-03, 02:17:01,VALID,918.05,VALID,0,VALID,96.352,VALID,-0.101885,VALID,18.368,VALID,91,VALID,0,
2000-12-03, 02:18:01,VALID,918.062,VALID,0,VALID,96.2986,VALID,-0.0679233,VALID,18.3617,VALID,82,VALID,0,
2000-12-03, 02:19:01,VALID,918.075,VALID,0,VALID,96.4512,VALID,0.0509425,VALID,18.3599,VALID,22,VALID,0,
2000-12-03, 02:20:01,VALID,918.08,VALID,0,VALID,96.7742,VALID,0.0339617,VALID,18.3924,VALID,286,VALID,0,
2000-12-03, 02:21:01,VALID,918.086,VALID,0,VALID,97.012,VALID,0.0339617,VALID,18.4247,VALID,295,VALID,0,
2000-12-03, 02:22:01,VALID,918.096,VALID,0,VALID,97.204,VALID,0,VALID,18.4635,VALID,300,VALID,0,
2000-12-03, 02:23:00,VALID,918.105,VALID,0,VALID,97.2765,VALID,0.0509425,VALID,18.4829,VALID,296,VALID,0,
2000-12-03, 02:24:00,VALID,918.082,VALID,0,VALID,97.3375,VALID,0.0509425,VALID,18.4953,VALID,296,VALID,0,
2000-12-03, 02:25:00,VALID,918.074,VALID,0,VALID,97.3528,VALID,0.0339617,VALID,18.5156,VALID,5,VALID,0,
2000-12-03, 02:26:00,VALID,918.062,VALID,0,VALID,97.2549,VALID,0.0339617,VALID,18.5186,VALID,104,VALID,0,
2000-12-03, 02:27:00,VALID,918.049,VALID,0,VALID,97.0654,VALID,0,VALID,18.5124,VALID,104,VALID,0,
2000-12-03, 02:28:00,VALID,918.04,VALID,0,VALID,96.8327,VALID,0.0339617,VALID,18.4732,VALID,104,VALID,0,
2000-12-03, 02:29:00,VALID,918.009,VALID,0,VALID,96.7259,VALID,0.0169808,VALID,18.4667,VALID,104,VALID,0,
2000-12-03, 02:30:00,VALID,917.981,VALID,0,VALID,96.7259,VALID,0.0509425,VALID,18.4538,VALID,104,VALID,0,
2000-12-03, 02:31:00,VALID,917.948,VALID,0,VALID,96.6725,VALID,0.0169808,VALID,18.428,VALID,104,VALID,0,
2000-12-03, 02:32:00,VALID,917.939,VALID,0,VALID,96.4944,VALID,0.0169808,VALID,18.3924,VALID,104,VALID,0,
2000-12-03, 02:33:00,VALID,917.938,VALID,0,VALID,96.4283,VALID,0.0339617,VALID,18.3444,VALID,104,VALID,0,
2000-12-03, 02:34:00,VALID,917.922,VALID,0,VALID,96.5161,VALID,-0.0679233,VALID,18.3066,VALID,104,VALID,0,
2000-12-03, 02:35:00,VALID,917.913,VALID,0,VALID,96.6534,VALID,-0.0509425,VALID,18.3004,VALID,104,VALID,0,
2000-12-03, 02:36:00,VALID,917.91,VALID,0,VALID,96.8657,VALID,-0.0169808,VALID,18.3001,VALID,108,VALID,0,
2000-12-03, 02:37:00,VALID,917.89,VALID,0,VALID,97.0629,VALID,-0.0509425,VALID,18.326,VALID,121,VALID,0,
2000-12-03, 02:38:00,VALID,917.866,VALID,0,VALID,97.2625,VALID,-0.0849042,VALID,18.362,VALID,122,VALID,0,
2000-12-03, 02:39:00,VALID,917.852,VALID,0,VALID,97.3757,VALID,-0.0679233,VALID,18.3647,VALID,121,VALID,0,
2000-12-03, 02:40:00,VALID,917.849,VALID,0,VALID,97.1913,VALID,-0.0679233,VALID,18.352,VALID,82,VALID,0,
2000-12-03, 02:41:00,VALID,917.86,VALID,0,VALID,97.1417,VALID,-0.0509425,VALID,18.3387,VALID,80,VALID,0,
2000-12-03, 02:42:00,VALID,917.839,VALID,0,VALID,97.0425,VALID,-0.0339617,VALID,18.3387,VALID,61,VALID,0,
2000-12-03, 02:43:00,VALID,917.826,VALID,0,VALID,96.8301,VALID,-0.0339617,VALID,18.3292,VALID,68,VALID,0,
2000-12-03, 02:44:00,VALID,917.817,VALID,0,VALID,96.8772,VALID,-0.0339617,VALID,18.3421,VALID,68,VALID,0,
2000-12-03, 02:45:00,VALID,917.808,VALID,0,VALID,96.7246,VALID,-0.0849042,VALID,18.3331,VALID,82,VALID,0,
2000-12-03, 02:46:00,VALID,917.79,VALID,0,VALID,96.6127,VALID,-0.0679233,VALID,18.3034,VALID,92,VALID,0,
2000-12-03, 02:47:00,VALID,917.787,VALID,0,VALID,96.6725,VALID,-0.0509425,VALID,18.3133,VALID,86,VALID,0,
2000-12-03, 02:48:00,VALID,917.803,VALID,0,VALID,96.6305,VALID,-0.0339617,VALID,18.3359,VALID,85,VALID,0,
2000-12-03, 02:49:00,VALID,917.795,VALID,0,VALID,96.6038,VALID,0.0339617,VALID,18.341,VALID,86,VALID,0,
2000-12-03, 02:50:00,VALID,917.763,VALID,0,VALID,96.5021,VALID,-0.0169808,VALID,18.3571,VALID,86,VALID,0,
2000-12-03, 02:51:00,VALID,917.727,VALID,0,VALID,96.2071,VALID,0.0169808,VALID,18.3698,VALID,87,VALID,0,
2000-12-03, 02:52:00,VALID,917.703,VALID,0,VALID,95.6857,VALID,0,VALID,18.3546,VALID,85,VALID,0,
2000-12-03, 02:53:00,VALID,917.685,VALID,0,VALID,95.6374,VALID,0,VALID,18.328,VALID,85,VALID,0,
2000-12-03, 02:54:00,VALID,917.669,VALID,0,VALID,95.6069,VALID,0,VALID,18.3804,VALID,78,VALID,1.04207,
2000-12-03, 02:55:00,VALID,917.655,VALID,0,VALID,95.0372,VALID,0.0169808,VALID,18.487,VALID,87,VALID,0.940848,
2000-12-03, 02:56:00,VALID,917.657,VALID,0,VALID,94.2844,VALID,-0.0169808,VALID,18.5096,VALID,86,VALID,0.851953,
2000-12-03, 02:57:00,VALID,917.635,VALID,0,VALID,94.3111,VALID,0,VALID,18.5129,VALID,87,VALID,0.710156,
2000-12-03, 02:58:00,VALID,917.632,VALID,0,VALID,94.2335,VALID,-0.0169808,VALID,18.5288,VALID,88,VALID,0.307227,
2000-12-03, 02:59:00,VALID,917.653,VALID,0,VALID,94.1254,VALID,0,VALID,18.5415,VALID,87,VALID,0.173353,
2000-12-03, 03:00:00,VALID,917.658,VALID,0,VALID,94.1369,VALID,0,VALID,18.5348,VALID,77,VALID,0.207465,
2000-12-03, 03:01:00,VALID,917.664,VALID,0,VALID,94.1178,VALID,0,VALID,18.5576,VALID,80,VALID,0,
2000-12-03, 03:02:00,VALID,917.663,VALID,0,VALID,93.9283,VALID,0,VALID,18.5574,VALID,90,VALID,0,
2000-12-03, 03:03:00,VALID,917.652,VALID,0,VALID,93.9271,VALID,-0.0169808,VALID,18.5706,VALID,75,VALID,0,
2000-12-03, 03:04:00,VALID,917.657,VALID,0,VALID,94.0428,VALID,-0.101885,VALID,18.6112,VALID,56,VALID,0,
2000-12-03, 03:05:00,VALID,917.663,VALID,0,VALID,94.2564,VALID,-0.118866,VALID,18.6433,VALID,53,VALID,0,
2000-12-03, 03:06:00,VALID,917.668,VALID,0,VALID,94.1979,VALID,-0.135847,VALID,18.6592,VALID,55,VALID,0,
2000-12-03, 03:07:00,VALID,917.658,VALID,0,VALID,93.9614,VALID,-0.101885,VALID,18.685,VALID,47,VALID,0,
2000-12-03, 03:08:00,VALID,917.666,VALID,0,VALID,93.5926,VALID,-0.118866,VALID,18.6915,VALID,23,VALID,0,
2000-12-03, 03:09:00,VALID,917.655,VALID,0,VALID,93.5837,VALID,-0.101885,VALID,18.6885,VALID,23,VALID,0,
2000-12-03, 03:10:00,VALID,917.63,VALID,0,VALID,93.4884,VALID,-0.101885,VALID,18.6726,VALID,23,VALID,0,
2000-12-03, 03:11:00,VALID,917.614,VALID,0,VALID,93.7007,VALID,-0.118866,VALID,18.6597,VALID,60,VALID,0,
2000-12-03, 03:12:00,VALID,917.612,VALID,0,VALID,93.5494,VALID,-0.0849042,VALID,18.6107,VALID,109,VALID,0,
2000-12-03, 03:13:00,VALID,917.615,VALID,0,VALID,93.9016,VALID,-0.118866,VALID,18.5752,VALID,118,VALID,0,
2000-12-03, 03:14:00,VALID,917.626,VALID,0,VALID,94.0809,VALID,-0.118866,VALID,18.556,VALID,118,VALID,0,
2000-12-03, 03:15:00,VALID,917.638,VALID,0,VALID,94.1089,VALID,-0.0679233,VALID,18.5304,VALID,118,VALID,0,
2000-12-03, 03:16:00,VALID,917.629,VALID,0,VALID,94.2564,VALID,-0.101885,VALID,18.4718,VALID,118,VALID,0,
2000-12-03, 03:17:00,VALID,917.628,VALID,0,VALID,94.615,VALID,-0.101885,VALID,18.446,VALID,118,VALID,0,
2000-12-03, 03:18:00,VALID,917.634,VALID,0,VALID,94.8935,VALID,-0.101885,VALID,18.4494,VALID,118,VALID,0,
2000-12-03, 03:19:00,VALID,917.628,VALID,0,VALID,95.0283,VALID,0,VALID,18.4868,VALID,118,VALID,0,
2000-12-03, 03:20:00,VALID,917.609,VALID,0,VALID,94.8846,VALID,0.0169808,VALID,18.5126,VALID,118,VALID,0,
2000-12-03, 03:21:00,VALID,917.599,VALID,0,VALID,94.704,VALID,0,VALID,18.5221,VALID,117,VALID,0,
2000-12-03, 03:22:00,VALID,917.586,VALID,0,VALID,94.512,VALID,0,VALID,18.5122,VALID,102,VALID,0,
2000-12-03, 03:23:00,VALID,917.567,VALID,0,VALID,94.6125,VALID,0,VALID,18.4831,VALID,96,VALID,0,
2000-12-03, 03:24:00,VALID,917.569,VALID,0,VALID,94.8286,VALID,0.0169808,VALID,18.4732,VALID,77,VALID,0.0219595,
2000-12-03, 03:25:00,VALID,917.563,VALID,0,VALID,94.9176,VALID,0,VALID,18.5191,VALID,68,VALID,0.799279,
2000-12-03, 03:26:00,VALID,917.564,VALID,0,VALID,94.4751,VALID,-0.0339617,VALID,18.6349,VALID,82,VALID,0.970439,
2000-12-03, 03:27:00,VALID,917.566,VALID,0,VALID,94.3009,VALID,-0.0339617,VALID,18.6677,VALID,83,VALID,0.816506,
2000-12-03, 03:28:00,VALID,917.558,VALID,0,VALID,94.0746,VALID,0,VALID,18.6894,VALID,69,VALID,0.601116,
2000-12-03, 03:29:00,VALID,917.556,VALID,0,VALID,94.0504,VALID,0.0169808,VALID,18.6841,VALID,75,VALID,0,
2000-12-03, 03:30:00,VALID,917.563,VALID,0,VALID,94.3734,VALID,0,VALID,18.6735,VALID,60,VALID,0,
2000-12-03, 03:31:00,VALID,917.57,VALID,0,VALID,94.423,VALID,-0.0169808,VALID,18.7291,VALID,40,VALID,0,
2000-12-03, 03:32:00,VALID,917.574,VALID,0,VALID,94.1979,VALID,0,VALID,18.7321,VALID,84,VALID,0,
2000-12-03, 03:33:00,VALID,917.582,VALID,0,VALID,94.1267,VALID,0,VALID,18.7547,VALID,78,VALID,0,
2000-12-03, 03:34:00,VALID,917.562,VALID,0,VALID,94.0886,VALID,0.0169808,VALID,18.7672,VALID,78,VALID,0,
2000-12-03, 03:35:00,VALID,917.539,VALID,0,VALID,94.1076,VALID,0.0169808,VALID,18.7642,VALID,95,VALID,0,
2000-12-03, 03:36:00,VALID,917.519,VALID,0,VALID,94.0479,VALID,0.0339617,VALID,18.7545,VALID,97,VALID,0,
2000-12-03, 03:37:00,VALID,917.536,VALID,0,VALID,94.2145,VALID,0.0339617,VALID,18.7482,VALID,9,VALID,0,
2000-12-03, 03:38:00,VALID,917.537,VALID,0,VALID,94.512,VALID,0.0339617,VALID,18.7512,VALID,14,VALID,0,
2000-12-03, 03:39:00,VALID,917.517,VALID,0,VALID,94.5171,VALID,0,VALID,18.7672,VALID,68,VALID,0,
2000-12-03, 03:40:00,VALID,917.504,VALID,0,VALID,94.1878,VALID,0.0509425,VALID,18.8062,VALID,87,VALID,0,
2000-12-03, 03:41:00,VALID,917.494,VALID,0,VALID,93.969,VALID,0.0169808,VALID,18.8087,VALID,89,VALID,0,
2000-12-03, 03:42:00,VALID,917.507,VALID,0,VALID,93.9678,VALID,0,VALID,18.7928,VALID,92,VALID,0.2125,
2000-12-03, 03:43:00,VALID,917.52,VALID,0,VALID,93.9957,VALID,0.0169808,VALID,18.7995,VALID,92,VALID,0.0274493,
2000-12-03, 03:44:00,VALID,917.517,VALID,0,VALID,93.9894,VALID,0.0169808,VALID,18.7999,VALID,92,VALID,0.0105574,
2000-12-03, 03:45:00,VALID,917.528,VALID,0,VALID,94.0186,VALID,0.0169808,VALID,18.7669,VALID,92,VALID,0,
2000-12-03, 03:46:00,VALID,917.532,VALID,0,VALID,94.161,VALID,0.0169808,VALID,18.7438,VALID,92,VALID,0,
2000-12-03, 03:47:00,VALID,917.527,VALID,0,VALID,94.2971,VALID,0.0509425,VALID,18.7545,VALID,92,VALID,0,